Content
SEND FEEDBACK

Daily
Averages
Monthly
Summary
United Kingdom

INVERNESS, SCOTLAND


Home > Europe > United Kingdom > Scotland
Elevation: 30 feet     Latitude: 57 32N     Longitude: 004 03W

WEATHER
 
SELECT A DAY
Number of Records: 229,490;   Date Range: 7/1/96 - 7/24/14
 
SHARE

PRINT THIS DATA

[ ← Previous Day ]
WEATHER ALMANAC - FEBRUARY 3, 2013
[ Next Day → ]
[ °C ]   °F
Weather ElementAverageHighLow
Temperature43.5 °F48.2 °F (9:50 pm)39.2 °F (12:50 am)
Dewpoint38.8 °F44.6 °F (9:20 pm)33.8 °F (12:50 am)
Humidity83.6 %93 % (8:20 pm)71 % (6:50 am)
Barometer29.55 in29.74 in (12:50 am)29.30 in (10:50 pm)
Wind Speed18.6 mph33.4 mph (1:20 am)
Wind Gust47.2 mph (1:20 am)
Weather ElementAverage
Visibility6.1 mi
Wind DirectionWSW (241.7 °)

Weather ElementTotal
Precipitation---
Heating Degree Days21.3 (Base 65)
Averaged from 47 records on February 3, 2013
WEATHER CONDITIONS BREAKOUT
WIND DIRECTION BREAKOUT
WEATHER BY HOUR - FEBRUARY 3, 2013
[ °C ]   °F
Local TimeTemperatureDewpointHumidityBarometerVisibilityWind DirectionWind SpeedGust SpeedPrecipitationEventsConditions
12:50 AM39.2 °F33.8 °F81 %29.74 in6.2 miSW (230°)20.7 mph
1:20 AM39.2 °F33.8 °F81 %29.68 in6.2 miSW (220°)33.4 mph47.2 mph
1:50 AM39.2 °F33.8 °F81 %29.65 in6.2 miSW (230°)32.2 mph
2:20 AM39.2 °F33.8 °F81 %29.62 in6.2 miSW (220°)24.2 mphScattered Clouds
2:50 AM41.0 °F35.6 °F81 %29.59 in6.2 miSW (220°)29.9 mph42.6 mph
3:20 AM39.2 °F35.6 °F87 %29.56 in6.2 miSW (230°)29.9 mphPartly Cloudy
3:50 AM41.0 °F37.4 °F87 %29.56 in6.2 miSW (230°)26.5 mph38.0 mphPartly Cloudy
4:20 AM41.0 °F37.4 °F87 %29.56 in6.2 miSW (230°)24.2 mphScattered Clouds
4:50 AM42.8 °F39.2 °F87 %29.56 in6.2 miSW (230°)21.9 mph
5:20 AM44.6 °F39.2 °F81 %29.56 in6.2 miWSW (250°)18.4 mphMostly Cloudy
5:50 AM44.6 °F39.2 °F81 %29.59 in6.2 miWest (260°)24.2 mphPartly Cloudy
6:20 AM42.8 °F37.4 °F81 %29.59 in5.6 miWest (260°)20.7 mphScattered Clouds
6:50 AM44.6 °F35.6 °F71 %29.59 in6.2 miWest (270°)21.9 mphPartly Cloudy
7:20 AM44.6 °F35.6 °F71 %29.59 in6.2 miWest (260°)20.7 mphPartly Cloudy
7:50 AM44.6 °F35.6 °F71 %29.59 in6.2 miWSW (250°)18.4 mphPartly Cloudy
8:20 AM44.6 °F35.6 °F71 %29.59 in5.0 miWSW (250°)20.7 mphPartly Cloudy
8:50 AM42.8 °F37.4 °F81 %29.59 in5.0 miWSW (250°)20.7 mphRainLight Rain Showers
9:20 AM42.8 °F39.2 °F87 %29.59 in5.0 miWSW (250°)18.4 mphRainLight Rain Showers
9:50 AM42.8 °F39.2 °F87 %29.59 in6.2 miWest (260°)17.3 mphRainLight Rain
10:20 AM42.8 °F39.2 °F87 %29.62 in6.2 miWSW (250°)24.2 mphRainLight Rain
10:50 AM42.8 °F37.4 °F81 %29.62 in5.0 miWest (260°)19.6 mphRainLight Rain
11:20 AM42.8 °F37.4 °F81 %29.62 in6.2 miWest (270°)21.9 mphRainLight Rain
11:50 AM42.8 °F39.2 °F87 %29.65 in6.2 miWest (260°)16.1 mphScattered Clouds
12:20 PM44.6 °F39.2 °F81 %29.65 in6.2 miWest (260°)16.1 mphRainLight Rain Showers
12:50 PM42.8 °F39.2 °F87 %29.65 in6.2 miWest (260°)10.4 mphMostly Cloudy
1:20 PM42.8 °F39.2 °F87 %29.65 in6.2 miWest (260°)18.4 mphMostly Cloudy
1:50 PM42.8 °F39.2 °F87 %29.65 in5.0 miWest (260°)15.0 mphRainLight Rain
2:20 PM42.8 °F39.2 °F87 %29.62 in6.2 miWest (260°)12.7 mphMostly Cloudy
2:50 PM44.6 °F39.2 °F81 %29.62 in6.2 miWest (260°)11.5 mphMostly Cloudy
3:20 PM44.6 °F39.2 °F81 %29.62 in6.2 miWSW (250°)11.5 mphMostly Cloudy
3:50 PM42.8 °F39.2 °F87 %29.62 in6.2 miSW (230°)10.4 mphMostly Cloudy
4:20 PM44.6 °F39.2 °F81 %29.59 in6.2 miSW (220°)10.4 mphMostly Cloudy
4:50 PM44.6 °F39.2 °F81 %29.59 in6.2 miSSW (200°)8.1 mphMostly Cloudy
5:20 PM42.8 °F39.2 °F87 %29.56 in6.2 miWSW (240°)8.1 mphMostly Cloudy
5:50 PM42.8 °F39.2 °F87 %29.56 in6.2 miSW (220°)9.2 mphRainLight Rain
6:20 PM42.8 °F39.2 °F87 %29.53 in6.2 miSSW (210°)8.1 mphRainLight Rain
6:50 PM44.6 °F39.2 °F81 %29.50 in6.2 miSW (220°)9.2 mphScattered Clouds
7:20 PM44.6 °F41.0 °F87 %29.47 in6.2 miWSW (240°)9.2 mphMostly Cloudy
7:50 PM44.6 °F41.0 °F87 %29.44 in6.2 miSW (220°)17.3 mphScattered Clouds
8:20 PM44.6 °F42.8 °F93 %29.39 in6.2 miSW (220°)18.4 mphScattered Clouds
8:50 PM46.4 °F42.8 °F87 %29.39 in6.2 miWSW (240°)16.1 mphScattered Clouds
9:20 PM46.4 °F44.6 °F93 %29.36 in6.2 miWSW (240°)20.7 mphRainLight Rain
9:50 PM48.2 °F44.6 °F87 %29.36 in6.2 miWSW (240°)18.4 mphLight Drizzle
10:20 PM48.2 °F44.6 °F87 %29.33 in6.2 miSW (230°)21.9 mph
10:50 PM48.2 °F44.6 °F87 %29.30 in6.2 miSW (230°)19.6 mph
11:20 PM44.6 °F41.0 °F87 %29.33 in6.2 miWest (260°)26.5 mph38.0 mphScattered Clouds
11:50 PM46.4 °F41.0 °F81 %29.36 in6.2 miWSW (250°)21.9 mphMostly Cloudy
Hourly data recorded from EGPE, located miles away from Inverness, Scotland







STORIES FROM OUR PARTNERS